ATLAS 5 CENTAUR DEB, 44651

Orbit data source: Space-Track

ATLAS 5 CENTAUR DEB, 44651 is space debris in HEO originally from a launch on Wed, 17 Oct 2018 UTC launched from the Air Force Eastern Test Range (AFETR). Debris objects in space refer to the collection of defunct objects orbiting the Earth. Examples of debris include non-operational satellites, rocket bodies, and fragments generated from explosions, collisions, or faulty payload assembly.

Loading next visibility...
ATLAS 5 CENTAUR DEB details
Identifier
44651, 2018-079M
Orbit
HEO
Last TLE update2 days ago
Origin
Flag of USULA (US)
ManufacturerULA Decatur
MissionSpacecraft
Bus & MotorUnknown
MassUnknown
Launch date (UTC)
2018-10-17 (6 years ago)
Launch vehicleUnknown
Launch site
Air Force Eastern Test Range (AFETR)
Object type
Payload
Rocket body
Debris
Shape & HBRUnknown
Radar Cross SectionRCS unknown

Expand to show TLE details & history

TLE from 2 days ago
0 ATLAS 5 CENTAUR DEB
1 44651U 18079M   24346.35849098 -.00000094  00000-0  00000-0 0  9994
2 44651  12.6143  80.8551 4685293 226.9271  82.8355  1.83296931 37948
Epoch: 2024-12-11T08:36Z
Definitive object data (Epoch: 2024-12-11T08:36:13.62Z)
Latitude0.00001°
Longitude-128.84196°
Altitude26,005.321 km
Speed3.238 km/s
True Right ascension05h 23m 04s
True Declination0° 00' 00"
Sunlit
Object was in daylight at TLE epoch
Visualization TLE readout
Latitude1.22911°
Longitude45.48771°
Altitude10,783.241 km
Speed5.685 km/s
Apparent Right ascension17h 35m 53s
Apparent Declination-9° 58' 03"
Sunlit
Object is in daylight
Visualization observer readout
Local Sidereal Time07:46:42
Azimuth53.135° ENE
Elevation-48.307°
Doppler factor1
Orbital elements
Apogee altitude35,042.201 km
Perigee altitude8,612.164 km
Semi-major axis28,205.32 km
Eccentricity0.4685293
Inclination12.6143°
RAAN80.8551°
Arg. of periapsis226.9271°
True anomaly133.02824°
Mean anomaly82.8355°
Eccentric anomaly108.31969°
Mean motion0.45819 °/min
BSTARUnknown
Orbital period785.7 mins
Loading maneuver chart data...

ATLAS 5 CENTAUR DEB Visibility forecast

Observer location: undefined°, undefined

Span
Click to sort rows by Start time (UTC) header in descending order
Start Az.
Max El. time (UTC)
Max El. Az.
Max El.
End time (UTC)
End Az.
58 mins2024-12-13 22:46:57.951Z224.056° SW2024-12-13 23:12:57.951Z186.203° SSW14.347°2024-12-13 23:44:57.951Z147.178° SSE
308 mins2024-12-14 04:08:57.951Z98.026° ESE2024-12-14 08:04:57.951Z101.377° ESE21.375°2024-12-14 09:16:57.951Z99.678° ESE
|